Temperature
17 17 17 17 17 17 17 17 17 17 17 17 17 17 17 17 17 17 17 17 17 17 17 17 17 17 17 17 17 17 16 16 16 16 16 16 16 16 16 16 16 16 16
17 17 17 17 17 17 17 17 17 17 17 17 17 17 17 17 17 17 17 17 17 17 17 17 17 17 17 17 17 17 16 16 16 16 16 16 16 16 16 16 16 16 16
17 17 17 17 17 17 17 17 17 17 17 17 17 17 18 17 17 17 17 17 17 17 17 17 17 17 17 17 17 17 16 16 16 16 16 16 16 16 16 16 16 16 16
18 18 18 18 17 17 17 17 17 17 17 18 18 18 18 18 17 17 17 17 17 17 17 17 17 17 17 17 17 17 16 16 16 16 16 16 16 16 16 16 16 16 16
18 18 18 18 17 17 17 18 18 18 18 18 18 18 18 18 18 18 17 17 17 17 17 17 17 17 17 17 17 17 16 16 16 16 16 16 16 16 16 16 16 16 16
18 18 18 17 17 18 17 18 17 17 17 17 18 18 18 18 18 18 18 18 17 17 17 17 17 17 17 17 17 17 17 16 16 16 16 16 16 16 16 16 16 16 16
18 18 18 18 18 18 17 17 17 17 17 17 18 18 19 18 18 18 18 18 18 17 17 17 17 17 17 17 17 17 17 17 17 16 16 16 16 16 16 16 16 16 16
18 18 18 18 18 18 18 18 17 18 18 18 18 18 19 19 18 19 18 18 18 18 17 17 17 17 17 17 17 17 17 17 17 16 16 16 16 16 16 16 16 16 16
18 18 18 18 18 18 18 18 18 17 18 18 18 18 18 19 19 19 18 18 18 18 18 17 17 17 17 17 17 17 17 17 17 17 16 16 16 16 16 16 16 16 16
18 18 18 18 18 18 18 18 18 17 17 18 18 17 17 18 18 19 19 18 18 18 18 18 18 17 17 17 17 17 17 17 17 17 17 16 16 16 16 16 16 16 16
18 18 18 18 18 18 18 18 18 17 17 17 17 17 17 17 17 18 18 18 18 18 18 17 17 17 17 17 17 17 17 17 17 17 17 16 16 16 16 16 16 16 16
18 18 18 18 18 18 18 18 18 17 17 17 17 17 17 17 17 17 17 18 18 18 17 17 17 17 17 17 17 17 17 17 17 17 16 16 16 16 16 16 16 16 16
18 18 18 18 18 18 18 18 17 17 17 17 17 17 17 17 17 17 17 17 17 18 17 17 17 17 17 17 17 17 17 17 17 16 16 16 16 16 16 16 16 16 16
18 18 18 18 18 18 17 17 17 17 17 17 17 17 17 17 17 17 17 17 17 17 17 17 17 16 16 16 16 16 16 16 16 16 16 16 16 16 16 16 15 15 15
18 18 18 18 18 18 17 17 17 17 17 17 17 17 17 17 16 16 16 16 16 17 17 16 16 16 16 16 16 16 16 16 16 16 16 16 16 16 15 15 15 15 15
18 18 18 18 18 17 17 17 17 17 17 17 17 17 17 16 16 16 16 16 16 16 16 16 15 15 15 15 15 15 15 15 15 15 15 15 15 15 15 15 15 15 15
18 18 18 18 17 17 17 17 17 17 17 17 17 16 16 16 16 16 16 16 16 16 16 15 15 15 15 15 15 14 14 14 14 15 15 15 15 15 14 14 14 14 14
18 17 17 17 17 17 17 17 17 17 16 16 16 16 16 16 16 16 16 15 15 15 15 15 15 14 14 14 14 14 14 14 14 14 14 14 14 14 14 14 14 13 13
17 17 17 17 17 17 17 17 16 16 16 16 16 16 15 15 15 15 15 15 15 15 15 15 14 14 14 13 13 13 13 13 13 13 13 13 13 13 13 13 13 13 13
17 17 17 17 17 16 16 16 16 16 16 15 15 15 15 15 15 15 15 15 15 14 14 14 14 13 13 13 13 13 13 13 12 12 12 12 12 12 12 12 12 12 12
16 16 16 16 16 16 16 16 15 15 15 15 15 15 15 15 15 14 14 14 14 14 14 14 13 13 13 12 12 13 13 12 12 12 12 12 11 11 11 11 11 11 11
16 16 16 15 15 15 15 15 15 15 14 14 14 14 14 14 14 14 14 14 13 13 13 13 13 12 12 12 12 12 12 12 12 11 11 11 11 11 11 10 10 10 10
16 15 15 15 15 15 15 15 15 14 14 14 14 13 13 13 13 13 13 13 13 13 12 12 12 11 11 11 11 11 11 11 11 10 11 11 11 10 10 10 10 10 10
15 15 15 15 15 14 14 14 14 14 13 13 13 13 13 12 12 12 12 12 12 12 12 11 11 11 11 11 11 11 11 11 11 10 10 10 10 10 10 10 9 9 9
15 14 14 14 14 14 14 14 14 13 13 13 12 12 12 12 12 12 12 11 11 11 11 11 11 11 11 11 10 10 10 11 11 10 10 10 10 10 10 10 9 9 9
14 14 14 13 13 13 13 13 13 13 12 12 12 11 11 11 11 11 11 11 11 10 10 10 10 10 10 10 10 10 9 10 10 10 9 9 10 10 10 9 9 9 9
Wind_Speed
3 4 3 2 2 3 3 2 2 2 1 1 1 1 1 2 2 3 6 9 9 9 9 10 10 10 10 10 10 10 10 11 10 10 10 10 10 10 10 10 9 9 9
3 2 2 1 2 1 2 1 2 1 1 1 1 1 1 2 3 3 4 8 10 10 10 10 10 11 11 11 11 11 11 12 11 11 11 11 11 11 11 11 11 10 10
3 2 2 2 2 2 2 1 0 0 1 2 2 2 2 2 2 3 4 4 7 11 12 11 11 11 12 12 12 12 12 13 13 13 13 13 13 12 12 12 12 12 12
3 2 2 2 2 2 2 1 2 1 1 2 2 2 2 2 4 4 5 5 5 6 11 13 12 12 12 13 13 13 13 13 14 14 14 14 14 14 14 14 14 14 14
3 3 2 1 2 2 2 2 0 1 1 2 3 3 3 3 3 4 4 5 5 6 6 11 14 13 13 13 14 15 15 15 15 15 16 16 16 16 16 16 16 16 16
3 3 3 3 3 2 2 1 2 2 3 3 4 2 3 3 4 4 5 5 5 6 7 6 8 12 15 14 14 15 16 16 15 16 17 18 18 18 18 18 18 18 18
3 4 3 2 3 3 3 3 3 3 3 2 4 3 4 5 4 4 4 4 5 5 5 6 7 7 9 16 17 16 16 16 17 17 17 18 19 20 20 20 20 20 20
5 5 4 4 4 3 4 4 4 4 3 2 3 4 3 3 3 4 4 5 4 5 5 7 7 7 8 7 11 17 16 16 17 17 17 18 19 19 20 21 21 21 21
5 5 5 5 4 4 4 4 4 5 4 3 3 3 3 2 2 2 2 3 3 4 5 5 7 7 9 8 7 12 16 16 16 16 16 17 17 18 19 19 19 19 19
5 5 5 5 5 4 4 5 4 4 5 4 3 3 4 4 3 3 3 2 3 4 5 4 5 5 6 7 6 6 11 14 15 16 16 16 16 17 17 17 18 18 18
5 5 5 5 5 4 4 5 4 5 4 5 4 3 4 4 5 5 4 3 3 2 2 3 3 3 3 4 4 5 8 11 13 13 14 15 15 16 16 16 16 17 17
4 4 5 5 5 4 5 5 5 6 5 5 4 4 4 4 4 4 5 5 4 2 2 2 2 3 3 4 3 2 2 6 9 10 12 13 13 14 14 14 15 15 15
3 3 4 4 4 4 5 5 5 5 5 6 5 5 4 4 4 4 5 5 5 3 2 2 2 2 3 3 3 2 0 2 5 8 9 10 10 11 11 12 12 12 12
3 2 3 4 5 5 5 5 5 5 4 5 5 5 4 4 4 4 4 4 5 4 2 2 1 3 3 3 4 3 3 1 2 4 5 6 7 7 7 8 9 9 9
2 2 3 3 3 4 4 4 4 4 4 4 4 4 4 3 3 4 4 4 4 5 4 2 2 3 4 3 4 3 4 5 3 2 0 1 2 2 2 4 6 7 7
2 3 3 2 2 2 3 3 3 3 3 3 3 3 3 3 2 3 3 3 4 4 4 3 2 3 5 4 5 4 4 6 6 6 6 5 5 4 3 2 1 3 4
3 3 2 2 2 2 2 1 1 1 1 2 2 2 2 2 2 2 2 2 3 3 3 2 3 3 4 4 5 5 4 5 6 9 8 8 8 7 6 5 4 4 2
2 2 2 2 2 1 0 0 0 0 1 1 2 2 2 2 2 2 2 3 2 2 2 2 2 3 4 4 3 3 3 5 6 10 11 11 10 10 9 9 7 6 5
1 1 1 1 1 1 1 1 2 2 3 3 4 4 4 4 3 3 3 2 2 1 1 1 2 3 3 3 3 3 3 3 4 6 8 9 9 9 9 8 8 7 7
2 2 3 3 3 3 3 3 4 4 5 5 5 5 6 5 5 4 3 3 3 2 2 2 2 2 3 3 3 2 2 3 3 4 4 5 7 8 8 8 7 7 7
4 4 4 5 5 5 4 5 5 5 5 5 6 6 7 9 10 7 5 5 4 3 3 3 3 3 4 4 4 4 3 2 3 3 2 2 3 3 4 5 5 5 5
6 5 6 7 7 6 8 7 5 6 6 6 6 6 6 8 10 10 10 10 9 6 4 4 4 4 5 5 5 4 4 3 3 3 3 2 2 3 4 5 5 5 5
7 7 7 7 8 7 8 8 7 6 6 6 6 6 6 7 7 7 8 9 11 11 8 5 5 5 5 5 6 5 4 4 4 4 4 3 2 2 2 5 6 5 5
7 7 7 7 7 8 8 6 5 7 7 7 7 7 7 7 7 6 7 8 9 9 8 6 6 5 6 6 5 4 3 1 1 3 4 3 3 3 2 2 5 4 3
7 7 7 7 7 7 7 5 3 6 7 8 8 8 7 7 9 7 7 7 7 7 9 10 8 6 7 8 8 5 4 3 3 3 5 4 4 3 2 2 2 4 2
7 7 8 7 7 7 8 6 3 5 6 7 7 8 11 9 10 8 6 6 6 5 5 5 5 3 5 7 7 7 6 5 4 3 6 5 5 5 3 2 3 2 1
Wind_Direction
105 102 96 97 112 112 134 112 100 107 130 132 117 130 120 109 120 149 144 164 181 190 194 193 193 194 195 196 198 199 199 197 196 196 196 195 194 194 196 196 197 196 194
106 113 128 122 105 118 82 90 111 136 191 130 173 160 219 179 158 180 172 171 186 196 203 203 203 205 205 205 206 208 209 208 206 204 205 206 207 207 207 206 207 205 204
150 163 146 171 134 137 142 171 115 236 222 202 203 210 209 205 182 193 207 198 186 196 205 210 211 213 215 214 215 216 218 217 214 212 212 213 215 216 216 216 215 214 214
192 213 189 186 163 199 199 207 234 245 278 267 235 233 218 208 211 206 211 208 205 203 199 205 214 219 222 223 222 222 223 224 222 220 218 219 220 222 222 222 222 221 220
205 225 223 185 215 226 233 259 167 279 274 275 256 223 234 229 225 221 222 219 216 224 218 193 207 218 225 226 226 227 226 225 226 226 226 225 226 227 227 227 226 225 224
217 231 223 213 231 232 236 256 272 268 274 273 280 272 247 237 234 228 233 225 220 225 230 223 212 215 218 223 227 228 229 228 227 229 229 230 231 231 231 231 229 228 228
225 233 245 219 236 235 250 254 254 246 256 274 273 268 254 227 221 224 227 238 224 223 231 233 238 237 216 214 221 227 230 230 227 228 229 231 233 232 232 233 232 231 230
233 228 231 237 231 239 243 247 249 270 270 257 277 284 271 226 207 218 213 217 235 230 234 233 239 242 252 229 212 215 224 229 229 230 231 232 233 234 234 233 234 233 233
236 246 237 243 245 244 239 245 249 254 269 267 261 277 285 292 291 207 224 231 240 250 252 251 243 241 243 245 233 210 215 222 228 230 231 232 232 233 235 234 233 232 231
238 239 241 240 245 247 243 250 242 255 261 265 255 256 271 297 285 267 229 217 235 246 257 265 263 249 248 249 245 240 214 219 224 229 232 234 233 232 234 236 236 235 233
233 239 243 242 244 252 254 260 261 255 253 259 262 257 253 251 252 269 278 282 272 263 258 257 274 276 270 265 261 252 217 222 226 232 236 238 238 237 236 240 242 241 240
232 231 239 240 242 251 254 254 253 246 252 259 261 257 257 261 262 266 274 283 286 289 296 302 295 284 283 285 291 20 221 230 233 239 244 245 243 241 240 241 244 245 244
237 230 241 240 244 241 248 254 249 258 250 250 252 255 257 260 271 269 270 279 283 277 274 279 299 328 325 328 347 19 184 237 243 246 248 249 248 244 242 241 243 246 243
258 255 246 248 251 248 247 244 251 246 243 246 254 257 256 258 262 261 267 279 284 278 270 289 319 348 345 351 7 343 4 49 265 259 255 252 245 242 242 242 241 243 242
243 244 254 256 263 254 252 249 251 248 239 242 250 248 253 261 257 259 262 266 273 287 291 304 334 358 354 14 10 6 18 50 65 57 120 187 183 195 225 240 239 239 239
241 248 256 254 252 252 249 246 242 244 233 236 250 267 269 274 276 270 269 270 268 277 290 339 359 357 2 8 39 37 45 65 69 82 82 83 83 79 67 37 293 258 248
225 233 235 234 228 240 250 240 240 245 244 263 273 261 265 289 297 295 290 283 278 271 274 308 348 8 9 10 17 26 42 56 63 78 81 78 75 70 62 53 46 41 29
214 224 220 210 200 200 222 202 148 13 359 345 336 341 338 338 328 321 314 299 295 281 283 309 343 7 13 18 19 18 43 61 74 82 86 81 77 72 64 57 50 44 39
170 165 160 139 140 122 105 88 75 59 52 46 38 32 19 16 7 360 346 342 337 350 354 355 8 12 14 12 13 30 44 49 71 97 104 98 89 83 72 62 53 46 44
130 116 99 95 90 87 89 87 83 77 69 60 53 47 37 28 17 9 12 9 8 18 37 44 38 27 19 4 360 8 28 43 35 38 61 90 108 104 87 69 53 42 40
98 95 95 89 82 80 75 84 91 84 78 70 62 58 54 51 43 31 24 20 22 30 45 48 38 27 19 9 359 356 13 33 54 17 18 49 85 74 83 78 57 40 36
88 90 86 83 77 73 58 52 71 86 77 73 66 59 61 59 62 59 56 50 41 45 48 49 47 40 23 10 359 359 4 359 7 12 345 20 36 37 51 52 52 52 42
95 86 82 82 81 67 59 61 60 83 77 67 63 57 55 58 61 68 77 75 63 52 42 42 51 31 19 4 352 359 9 7 6 5 346 354 12 18 47 71 79 60 41
94 89 86 87 86 71 59 63 71 89 80 71 64 61 62 57 50 57 71 71 65 55 50 53 52 35 24 6 350 353 352 9 64 46 358 350 355 353 2 55 108 82 45
94 91 86 84 84 74 54 45 54 96 88 78 69 58 59 63 41 39 74 75 71 72 76 76 66 60 47 27 4 359 359 357 15 33 16 347 343 335 332 358 105 149 148
98 95 87 81 80 73 54 37 15 96 93 90 82 70 59 54 40 32 67 70 65 53 52 64 68 61 49 46 32 16 2 356 355 9 13 341 341 336 325 340 348 348 328
Height
1567 1568 1568 1569 1570 1571 1571 1571 1572 1572 1573 1574 1574 1575 1575 1575 1575 1575 1574 1573 1573 1574 1574 1575 1576 1577 1578 1578 1579 1580 1581 1582 1582 1583 1584 1585 1586 1587 1588 1589 1589 1590 1591
1568 1569 1569 1569 1571 1571 1572 1572 1572 1572 1573 1574 1574 1574 1574 1575 1575 1575 1575 1574 1573 1574 1574 1575 1575 1576 1577 1577 1578 1579 1580 1581 1581 1582 1583 1584 1585 1586 1587 1587 1588 1589 1590
1568 1569 1570 1570 1571 1571 1571 1572 1572 1572 1573 1573 1573 1573 1574 1574 1574 1574 1574 1574 1574 1573 1573 1574 1574 1575 1575 1576 1577 1577 1578 1579 1580 1581 1582 1582 1583 1584 1585 1586 1587 1587 1588
1569 1569 1570 1571 1571 1571 1572 1572 1572 1573 1573 1573 1573 1573 1573 1572 1573 1573 1573 1573 1573 1573 1572 1572 1573 1573 1573 1574 1574 1575 1576 1577 1578 1579 1579 1580 1581 1582 1583 1584 1584 1585 1586
1569 1569 1570 1570 1570 1571 1571 1572 1572 1572 1572 1572 1572 1571 1572 1571 1571 1572 1572 1572 1571 1571 1572 1571 1571 1571 1571 1571 1572 1573 1573 1574 1575 1575 1577 1578 1579 1579 1580 1581 1582 1583 1583
1569 1569 1569 1569 1570 1570 1570 1570 1570 1570 1570 1570 1571 1571 1570 1570 1570 1570 1570 1570 1570 1569 1570 1570 1569 1569 1569 1569 1569 1570 1570 1571 1571 1572 1573 1574 1575 1576 1577 1578 1579 1579 1580
1568 1568 1569 1568 1568 1569 1569 1569 1569 1569 1569 1569 1569 1569 1569 1569 1568 1567 1568 1568 1568 1568 1567 1567 1567 1567 1567 1566 1567 1567 1567 1568 1568 1569 1570 1571 1571 1572 1573 1574 1575 1576 1576
1567 1567 1567 1567 1567 1567 1567 1567 1567 1568 1568 1568 1568 1568 1567 1568 1566 1566 1566 1566 1566 1566 1566 1565 1564 1564 1564 1564 1563 1564 1564 1565 1565 1566 1566 1567 1567 1568 1569 1570 1571 1571 1572
1566 1565 1565 1565 1566 1566 1566 1565 1565 1565 1566 1566 1566 1566 1566 1565 1565 1565 1564 1564 1564 1564 1563 1563 1562 1561 1560 1561 1560 1560 1561 1561 1561 1562 1562 1563 1563 1564 1565 1566 1566 1567 1568
1563 1563 1563 1563 1563 1564 1563 1563 1563 1563 1563 1564 1564 1563 1564 1564 1564 1563 1563 1562 1561 1561 1561 1560 1560 1559 1558 1557 1557 1557 1557 1557 1558 1558 1559 1559 1560 1560 1561 1561 1562 1562 1562
1561 1561 1561 1561 1560 1560 1560 1560 1560 1560 1560 1561 1561 1561 1561 1561 1561 1561 1560 1560 1560 1559 1558 1557 1557 1556 1556 1555 1554 1554 1553 1554 1554 1555 1555 1555 1556 1556 1556 1557 1557 1558 1558
1559 1558 1558 1558 1557 1557 1557 1557 1557 1557 1557 1557 1557 1558 1559 1559 1559 1558 1557 1557 1557 1556 1556 1555 1554 1554 1553 1552 1551 1550 1550 1550 1550 1550 1551 1551 1552 1552 1552 1552 1553 1553 1553
1557 1556 1556 1555 1555 1554 1554 1554 1554 1554 1554 1554 1554 1555 1555 1556 1556 1555 1555 1554 1554 1553 1553 1552 1552 1551 1550 1549 1548 1547 1546 1546 1546 1546 1547 1547 1547 1547 1548 1548 1548 1548 1548
1554 1554 1553 1552 1552 1551 1551 1551 1551 1551 1551 1551 1552 1552 1552 1552 1553 1552 1553 1552 1551 1551 1550 1550 1549 1548 1547 1547 1545 1544 1544 1543 1543 1543 1543 1543 1543 1543 1543 1543 1543 1543 1543
1551 1551 1550 1550 1549 1548 1548 1548 1548 1548 1548 1549 1549 1549 1549 1550 1550 1550 1550 1550 1550 1549 1548 1547 1547 1546 1545 1544 1543 1542 1541 1540 1540 1539 1539 1539 1539 1539 1539 1539 1539 1538 1538
1548 1548 1548 1547 1547 1546 1546 1546 1546 1545 1546 1547 1547 1547 1547 1548 1547 1547 1547 1547 1547 1547 1546 1546 1545 1544 1543 1542 1541 1540 1539 1537 1536 1536 1535 1535 1535 1535 1534 1534 1534 1533 1533
1545 1546 1545 1545 1545 1545 1545 1545 1545 1545 1545 1545 1545 1545 1545 1545 1545 1545 1545 1545 1544 1544 1544 1543 1543 1542 1540 1539 1538 1538 1537 1535 1534 1533 1533 1532 1532 1531 1531 1530 1529 1528 1528
1543 1543 1543 1543 1543 1544 1544 1544 1544 1544 1544 1543 1543 1543 1543 1544 1543 1543 1543 1543 1542 1542 1542 1541 1540 1539 1538 1537 1536 1535 1535 1534 1532 1531 1530 1530 1529 1528 1527 1526 1526 1525 1524
1541 1541 1542 1542 1542 1542 1542 1543 1543 1544 1543 1543 1543 1542 1542 1542 1542 1542 1541 1541 1540 1540 1540 1539 1538 1537 1537 1536 1535 1534 1533 1532 1531 1530 1529 1528 1527 1526 1525 1524 1523 1522 1521
1540 1540 1540 1541 1541 1541 1542 1542 1542 1542 1543 1542 1542 1542 1542 1541 1541 1540 1540 1539 1539 1539 1538 1538 1537 1537 1536 1535 1534 1533 1532 1531 1530 1530 1528 1527 1525 1524 1523 1522 1521 1520 1518
1540 1540 1540 1540 1540 1541 1541 1541 1542 1542 1542 1542 1542 1542 1541 1541 1540 1540 1539 1538 1538 1538 1538 1537 1537 1536 1535 1534 1533 1532 1531 1530 1529 1528 1527 1526 1525 1524 1522 1520 1519 1517 1516
1540 1540 1540 1540 1540 1541 1541 1541 1542 1542 1542 1542 1542 1542 1541 1541 1540 1539 1538 1538 1537 1537 1537 1537 1536 1535 1534 1534 1533 1532 1531 1530 1528 1528 1526 1526 1525 1523 1521 1519 1517 1516 1514
1540 1540 1541 1541 1541 1541 1542 1542 1542 1542 1542 1543 1542 1542 1542 1541 1540 1540 1539 1538 1537 1537 1537 1537 1536 1535 1534 1533 1532 1531 1530 1529 1528 1527 1526 1525 1524 1522 1521 1518 1516 1515 1513
1541 1541 1542 1542 1542 1542 1543 1543 1543 1543 1543 1543 1543 1542 1542 1541 1541 1540 1540 1539 1538 1537 1537 1536 1536 1535 1535 1533 1532 1532 1530 1529 1528 1527 1526 1525 1523 1522 1520 1518 1516 1514 1512
1543 1543 1543 1544 1543 1543 1543 1544 1544 1544 1543 1543 1543 1543 1543 1542 1542 1541 1541 1540 1539 1539 1539 1537 1537 1536 1535 1533 1532 1532 1531 1530 1529 1528 1526 1525 1523 1521 1520 1518 1515 1513 1510
1544 1544 1544 1545 1545 1544 1544 1544 1545 1545 1544 1545 1544 1544 1543 1543 1543 1542 1542 1541 1540 1540 1540 1539 1538 1537 1536 1534 1533 1531 1531 1530 1529 1528 1526 1524 1523 1521 1519 1517 1515 1513 1511